Stations météo

réclame
Mon MeteoGroup
Yecla, Espagne (8356): Température de l'air & dewpoint: 18.05.2019 03:00:00 - 24.05.2019 03:00:00 (CEST)Yecla, Espagne (8356): Vitesse du vent & gusts: 18.05.2019 03:00:00 - 24.05.2019 03:00:00 (CEST)Yecla, Espagne (8356): Direction du vent: 18.05.2019 03:00:00 - 24.05.2019 03:00:00 (CEST)Yecla, Espagne (8356): reduced air pressure: 18.05.2019 03:00:00 - 24.05.2019 03:00:00 (CEST)Yecla, Espagne (8356): visibility: 18.05.2019 03:00:00 - 24.05.2019 03:00:00 (CEST)Yecla, Espagne (8356): Ensoleillement: 18.05.2019 03:00:00 - 24.05.2019 03:00:00 (CEST)Yecla, Espagne (8356): Quantités de précipitations: 18.05.2019 03:00:00 - 24.05.2019 03:00:00 (CEST)
Date & Time tt [°C] td [°C] ff [km/h] ff [knt] fx [km/h] fx [knt] dd ppp [hPa] vv [km] sd [min] rr [mm]
24.05.2019 03:00:00 - - - - - - - - - - -
24.05.2019 02:00:00 17,6 9,7 1 1 8 5 NW 1014,5 20 0 -
24.05.2019 01:00:00 18,2 9,6 2 1 7 4 NNE 1014,8 20 0 0,0
24.05.2019 00:00:00 18,0 10,2 5 3 12 7 WSW 1015,1 20 0 0,0
23.05.2019 23:00:00 18,4 8,4 8 4 16 9 WSW 1015,1 20 0 0,0
23.05.2019 22:00:00 19,5 9,0 10 5 16 9 SSW 1014,4 20 0 0,0
23.05.2019 21:00:00 21,7 8,9 8 4 19 10 SW 1013,8 20 24 0,0
23.05.2019 20:00:00 24,2 8,1 11 6 26 14 S 1012,9 20 39 -
23.05.2019 19:00:00 26,1 6,7 15 8 29 15 S 1012,6 20 15 0,0
23.05.2019 18:00:00 26,6 5,5 18 10 31 17 SSW 1012,6 20 36 0,0
23.05.2019 17:00:00 26,4 5,3 13 7 25 13 S 1013,2 20 28 0,0
23.05.2019 16:00:00 27,2 4,8 14 8 26 14 SSW 1013,5 20 33 0,0
23.05.2019 15:00:00 27,9 5,5 11 6 22 12 SSE 1013,9 20 59 0,0
23.05.2019 14:00:00 25,9 6,5 13 7 23 12 S 1015,0 20 60 -
23.05.2019 13:00:00 25,1 5,3 8 4 16 9 SW 1015,7 18 60 0,0
23.05.2019 12:00:00 23,2 6,1 7 4 19 10 S 1016,8 20 60 0,0
23.05.2019 11:00:00 20,5 5,0 7 4 15 8 S 1017,5 20 43 0,0
23.05.2019 10:00:00 17,5 7,3 4 2 6 3 ESE 1018,4 20 60 0,0
23.05.2019 09:00:00 13,9 8,3 2 1 4 2 SSW 1019,1 20 39 0,0
23.05.2019 08:00:00 10,9 8,0 2 1 9 5 ESE 1019,7 20 32 -
23.05.2019 07:00:00 10,0 7,3 5 3 8 5 WSW 1019,8 20 0 0,0
23.05.2019 06:00:00 10,2 7,8 7 4 11 6 WSW 1019,6 20 0 0,0
23.05.2019 05:00:00 10,9 8,0 3 2 11 6 SW 1019,4 20 0 0,0
23.05.2019 04:00:00 11,3 8,7 5 3 11 6 WSW 1019,5 20 0 0,0
23.05.2019 03:00:00 11,8 8,8 6 3 10 6 WSW 1019,5 20 0 0,0
23.05.2019 02:00:00 13,4 9,7 5 3 11 6 WSW 1019,1 20 0 -
23.05.2019 01:00:00 13,8 10,0 6 3 13 7 WSW 1019,1 20 0 0,0
23.05.2019 00:00:00 14,7 10,2 9 5 13 7 WSW 1019,0 20 0 0,0
22.05.2019 23:00:00 16,2 8,4 5 3 13 7 WSW 1018,4 20 0 0,0
22.05.2019 22:00:00 17,6 8,1 10 6 23 12 SW 1017,4 20 0 0,0
22.05.2019 21:00:00 19,6 8,0 12 6 24 13 SSW 1016,5 20 27 0,0
22.05.2019 20:00:00 22,2 7,1 11 6 24 13 S 1015,7 20 26 -
22.05.2019 19:00:00 22,4 6,5 12 6 28 15 S 1015,6 20 42 0,0
22.05.2019 18:00:00 24,6 6,4 16 8 29 15 SSE 1014,9 20 57 0,0
22.05.2019 17:00:00 24,7 7,3 16 9 29 16 SSW 1014,9 20 60 0,0
22.05.2019 16:00:00 24,8 7,4 11 6 24 13 SSE 1015,3 20 60 0,0
22.05.2019 15:00:00 24,0 7,1 12 7 24 13 SW 1015,8 20 60 0,0
22.05.2019 14:00:00 23,0 7,8 12 6 23 12 SSW 1016,5 20 60 -
22.05.2019 13:00:00 21,9 7,3 10 5 21 11 S 1017,1 20 60 0,0
22.05.2019 12:00:00 20,6 7,3 10 5 16 9 SSW 1017,5 20 60 0,0
22.05.2019 11:00:00 19,1 8,4 6 3 11 6 S 1017,7 20 60 0,0
22.05.2019 10:00:00 17,4 9,6 3 2 6 4 ENE 1018,1 20 60 0,0
22.05.2019 09:00:00 14,0 11,3 3 1 5 3 E 1018,6 20 60 0,0
22.05.2019 08:00:00 10,4 9,2 1 1 5 3 WSW 1019,3 19 4 -
22.05.2019 07:00:00 10,6 9,3 2 1 7 4 NNW 1018,7 20 0 0,0
22.05.2019 06:00:00 10,2 8,9 5 3 8 4 WSW 1018,7 20 0 0,0
22.05.2019 05:00:00 9,1 7,6 3 2 7 4 WSW 1018,9 20 0 0,0
22.05.2019 04:00:00 10,0 8,3 2 1 11 6 N 1018,5 20 0 0,0
22.05.2019 03:00:00 10,6 8,7 2 1 8 4 SW 1018,7 16 0 0,0
22.05.2019 02:00:00 11,8 9,9 3 2 10 5 W 1018,3 20 0 -
22.05.2019 01:00:00 12,3 10,4 2 1 16 9 NNW 1018,5 20 0 0,0
22.05.2019 00:00:00 12,3 10,2 10 5 14 7 WSW 1018,6 20 0 0,0
21.05.2019 23:00:00 13,0 9,8 4 2 8 5 NW 1018,2 20 0 0,0
21.05.2019 22:00:00 13,9 9,7 6 3 26 14 NE 1017,5 20 0 0,0
21.05.2019 21:00:00 15,6 9,0 7 4 19 11 NNE 1016,6 20 26 0,0
21.05.2019 20:00:00 18,1 8,9 7 4 17 9 WSW 1014,6 20 56 -
21.05.2019 19:00:00 15,9 10,6 4 2 24 13 WSW 1015,1 20 0 0,0
21.05.2019 18:00:00 14,6 10,6 16 8 34 19 SW 1016,0 20 0 1,0
21.05.2019 17:00:00 14,4 10,6 10 5 29 15 ESE 1015,4 9 0 10,6
21.05.2019 16:00:00 17,4 11,2 14 8 26 14 SSW 1014,4 7 4 2,4
21.05.2019 15:00:00 22,8 3,4 12 7 21 11 S 1012,9 20 44 0,0
21.05.2019 14:00:00 22,3 3,9 13 7 28 15 SSW 1013,5 20 54 -
21.05.2019 13:00:00 21,8 5,3 5 3 19 10 E 1014,0 20 60 0,0
21.05.2019 12:00:00 19,7 6,4 7 4 14 7 E 1014,5 20 59 0,0
21.05.2019 11:00:00 16,6 8,3 7 4 16 8 NE 1015,3 20 4 0,0
21.05.2019 10:00:00 14,7 8,4 6 3 10 6 ENE 1015,9 20 0 0,0
21.05.2019 09:00:00 13,6 9,8 2 1 5 3 S 1015,5 20 0 0,0
21.05.2019 08:00:00 12,8 9,0 3 2 8 4 W 1015,1 20 0 -
21.05.2019 07:00:00 12,5 8,9 3 2 6 4 SSW 1014,6 20 0 0,0
21.05.2019 06:00:00 12,4 8,9 3 2 5 3 SSW 1014,4 20 0 0,0
21.05.2019 05:00:00 12,9 8,8 2 1 5 3 ENE 1014,1 20 0 0,0
21.05.2019 04:00:00 12,8 7,7 1 1 7 4 S 1014,2 20 0 0,0
21.05.2019 03:00:00 12,7 7,8 4 2 5 3 W 1014,4 20 0 0,0
21.05.2019 02:00:00 12,6 6,4 3 2 8 4 W 1014,8 20 0 -
21.05.2019 01:00:00 13,6 6,8 5 3 8 5 W 1014,6 20 0 0,0
21.05.2019 00:00:00 13,4 6,7 5 3 9 5 WSW 1014,5 20 0 0,0
20.05.2019 23:00:00 14,6 7,6 8 4 12 7 WSW 1013,9 20 0 0,0
20.05.2019 22:00:00 15,9 7,4 8 4 21 11 WSW 1012,6 20 0 0,0
20.05.2019 21:00:00 17,5 7,0 8 5 22 12 SSW 1011,6 20 9 0,0
20.05.2019 20:00:00 18,8 5,9 11 6 29 16 S 1011,1 20 0 -
20.05.2019 19:00:00 19,7 6,4 20 11 35 19 S 1010,5 20 25 0,0
20.05.2019 18:00:00 22,0 4,1 16 9 25 14 S 1009,6 20 37 0,0
20.05.2019 17:00:00 23,2 -2,5 7 4 24 13 SSW 1009,5 20 45 0,0
20.05.2019 16:00:00 23,6 -2,2 6 4 26 14 NNE 1010,0 20 60 0,0
20.05.2019 15:00:00 23,2 -4,2 13 7 26 14 W 1010,8 20 60 0,0
20.05.2019 14:00:00 21,8 -1,4 8 4 20 11 W 1011,4 20 43 -
20.05.2019 13:00:00 20,3 -1,0 4 2 16 9 WNW 1011,9 20 15 0,0
20.05.2019 12:00:00 19,8 -0,3 4 2 16 8 ESE 1012,0 20 52 0,0
20.05.2019 11:00:00 18,9 0,0 3 1 15 8 WSW 1012,1 20 56 0,0
20.05.2019 10:00:00 17,1 4,1 4 2 9 5 ESE 1012,5 20 60 0,0
20.05.2019 09:00:00 14,4 4,6 3 1 7 4 E 1012,9 20 60 0,0
20.05.2019 08:00:00 8,5 4,6 4 2 9 5 WSW 1014,2 20 40 -
20.05.2019 07:00:00 6,9 3,4 3 1 10 5 WNW 1014,0 20 0 0,0
20.05.2019 06:00:00 7,6 3,6 4 2 8 5 WSW 1013,6 20 0 0,0
20.05.2019 05:00:00 9,8 4,3 1 1 14 7 NW 1013,0 20 0 0,0
20.05.2019 04:00:00 10,9 5,3 4 2 11 6 WSW 1013,1 20 0 0,0
20.05.2019 03:00:00 10,7 5,0 8 4 13 7 W 1013,5 20 0 0,0
20.05.2019 02:00:00 10,7 4,6 3 2 5 3 S 1013,9 20 0 -
20.05.2019 01:00:00 10,5 2,1 1 1 5 3 NW 1014,1 20 0 0,0
20.05.2019 00:00:00 12,1 -0,5 2 1 10 5 NE 1013,4 20 0 0,0
19.05.2019 23:00:00 14,1 -2,5 4 2 9 5 ENE 1012,4 20 0 0,0
19.05.2019 22:00:00 15,7 -2,2 2 1 21 12 SSE 1011,2 20 0 0,0
19.05.2019 21:00:00 18,0 -3,6 7 4 28 15 W 1010,0 20 15 0,0
19.05.2019 20:00:00 19,4 -3,6 17 9 36 19 W 1009,3 20 34 -
19.05.2019 19:00:00 19,9 -3,0 16 9 39 21 W 1008,8 20 22 0,0
19.05.2019 18:00:00 21,6 -2,5 6 3 31 17 N 1008,2 20 23 0,0
19.05.2019 17:00:00 20,0 -2,5 13 7 41 22 W 1008,8 20 11 0,0
19.05.2019 16:00:00 21,5 -3,9 18 10 40 21 W 1008,4 20 50 0,0
19.05.2019 15:00:00 20,3 -3,3 15 8 - - NW 1009,0 20 43 0,0
19.05.2019 14:00:00 19,9 -2,5 16 9 - - W 1009,2 20 54 -
19.05.2019 13:00:00 18,2 -2,7 17 9 40 22 WSW 1009,8 20 37 0,0
19.05.2019 12:00:00 18,2 -1,7 16 8 30 16 W 1010,1 20 60 0,0
19.05.2019 11:00:00 16,9 -1,2 17 9 36 19 NNE 1010,4 20 60 0,0
19.05.2019 10:00:00 16,3 -0,5 4 2 10 6 ESE 1010,9 20 60 0,0
19.05.2019 09:00:00 11,8 -0,5 6 4 10 5 ESE 1011,7 20 60 0,0
19.05.2019 08:00:00 6,6 -0,5 2 1 8 4 SE 1013,1 20 38 -
19.05.2019 07:00:00 - - - - - - - - - - -
19.05.2019 06:00:00 7,4 -2,0 8 4 14 7 W 1012,4 20 0 0,0
19.05.2019 05:00:00 8,0 -1,7 10 5 16 9 W 1012,4 20 0 0,0
19.05.2019 04:00:00 8,3 -2,7 4 2 19 10 S 1012,5 20 0 0,0
19.05.2019 03:00:00 12,9 -4,2 11 6 20 11 NW 1011,2 20 0 0,0
19.05.2019 02:00:00 12,8 -4,5 8 4 15 8 W 1011,5 20 0 -
19.05.2019 01:00:00 12,6 -4,5 3 2 26 14 NNW 1011,6 20 0 0,0
19.05.2019 00:00:00 14,3 -5,4 15 8 31 17 WSW 1011,1 20 0 0,0
18.05.2019 23:00:00 13,0 -5,1 10 6 28 15 WSW 1011,4 20 0 0,0
18.05.2019 22:00:00 15,6 -6,0 14 8 37 20 WSW 1010,3 20 0 0,0
18.05.2019 21:00:00 16,7 -6,4 23 12 40 21 W 1009,4 20 26 0,0
18.05.2019 20:00:00 18,1 -5,4 21 11 45 25 W 1008,3 20 60 -
18.05.2019 19:00:00 19,0 -3,9 18 10 46 25 W 1007,5 20 58 0,0
18.05.2019 18:00:00 19,6 -3,9 24 13 48 26 W 1007,1 20 60 0,0
18.05.2019 17:00:00 20,1 -3,6 18 10 - - W 1006,8 20 59 0,0
18.05.2019 16:00:00 19,6 -3,3 19 10 40 21 W 1007,3 20 25 0,0
18.05.2019 15:00:00 19,8 -2,5 22 12 39 21 W 1007,2 20 47 0,0
18.05.2019 14:00:00 18,2 -0,7 14 7 - - WNW 1007,9 20 31 -
18.05.2019 13:00:00 18,8 0,9 21 11 36 19 W 1008,2 20 60 0,0
18.05.2019 12:00:00 17,7 0,9 19 10 31 17 W 1008,1 20 60 0,0
18.05.2019 11:00:00 16,5 1,1 14 8 27 15 W 1008,4 20 27 0,0
18.05.2019 10:00:00 13,9 1,9 10 5 18 10 W 1009,3 20 0 0,0
18.05.2019 09:00:00 12,1 3,8 4 2 9 5 E 1009,8 17 0 0,0
18.05.2019 08:00:00 10,8 3,8 5 3 10 5 SE 1009,7 20 0 -
18.05.2019 07:00:00 10,1 3,6 4 2 7 4 W 1009,3 20 0 0,0
18.05.2019 06:00:00 10,4 3,2 3 2 10 5 NW 1009,4 20 0 0,0
18.05.2019 05:00:00 10,6 3,8 4 2 8 4 W 1009,8 20 0 0,0
18.05.2019 04:00:00 11,0 3,8 1 1 8 4 NE 1010,2 20 0 0,0
18.05.2019 03:00:00 11,7 3,8 1 1 4 2 SSE 1010,5 20 0 0,0

tt = Température de l'air
td = dewpoint
ff = Vitesse du vent
fx = gusts
dd = Direction du vent
ppp = reduced air pressure
vv = visibility
sd = Ensoleillement
rr = Quantités de précipitations

stations d'obs. à proximité